Tracking 19254 objects as of 21-Oct-2018
HD Live streaming from Space Station
objects crossing your sky now

MICROMAS 2A

Track MICROMAS 2A now!
10-day predictions
MICROMAS 2A is classified as:


NORAD ID: 43131
Int'l Code: 2018-004W
Perigee: 496.2 km
Apogee: 510.2 km
Inclination: 97.5 °
Period: 94.5 minutes
Semi major axis: 6874 km
RCS: Unknown
Launch date: January 12, 2018
Source: United States (US)
Launch site: SRIHARIKOTA (SRI)

MICROMAS 2A is a 3U cubesat from MIT Lincoln Lab, designed for microwave radiometry of tropical weather.
aabbcc
Your satellite tracking list
Your tracking list is empty




NASA's NSSDC Master Catalog

Two Line Element Set (TLE):
1 43131U 18004W   18294.18305545  .00001864  00000-0  81675-4 0  9990
2 43131  97.5210 357.1887 0010229  26.3586 333.8168 15.23244704 42898
Source of the keplerian elements: AFSPC